STARLINK-4605, 53616

Orbit data source: Space-Track

STARLINK-4605, 53616 is a payload satellite owned by SpaceX/Seattle (US) in LEO that was launched on Sun, 28 Aug 2022 UTC via an FALCON 9 launch vehicle from the Air Force Eastern Test Range (AFETR). Payload-class satellites include a variety of spacecraft equipped with specific instruments for various scientific and technological missions. These include communications satellites like Starlink; space stations such as the ISS; scientific satellites like the Hubble; Earth observation satellites from companies like Planet Labs, Umbra, and HawkEye 360; GPS; miniature CubeSats for education and research; and military/defense satellites.

Loading next visibility...
Identifier
53616, 2022-104AE
Orbit
LEO
Country
Flag of USUS
Related business
Manufacturer
SpaceX/Seattle
Mission
Operational Commercial Communications
Bus & Motor
STARLINK, Unknown motor
Mass
300 kg wet, ~290 kg dry
Launch date (UTC)
2022-08-28 (3 years ago)
Launch vehicle
FALCON 9
Launch site
Air Force Eastern Test Range (AFETR)
Object type
Payload
Rocket body
Debris
Shape & HBR
Box + 1 Pan, 10.1 m
Radar Cross Section
13.562 m², Large (>1 m²)

Expand to show TLE details & history
Last TLE update: 7 hours ago

TLE from 7 hours ago
0 STARLINK-4605
1 53616U 22104AE  25349.95730863  .00003017  00000-0  20748-3 0  9999
2 53616  53.2167 239.8859 0001374  75.2707 284.8437 15.08851239183240
Epoch: 2025-12-15T22:58Z
TLE epoch observation values (Epoch: 2025-12-15T22:58:31.465Z)
Latitude
-0.00006°
Longitude
170.40633°
Altitude
540.363 km
Speed
7.594 km/s
True Right ascension
15h 59m 32s
True Declination
0° 00' 00"
Sunlit
Object was in daylight at epoch
Visualization orbit readout
Latitude
Unknown
Longitude
Unknown
Altitude
Unknown
Speed
Unknown
Apparent Right ascension
Unknown
Apparent Declination
Unknown
Sunlit
N/A
Visualization observer readout
Local Sidereal Time
05:03:15
Azimuth
Unknown
Elevation
Unknown
Doppler factor
Unknown
Orbital elements
Apogee altitude
540.905 km
Perigee altitude
539.004 km
Semi-major axis
6,918.091 km
Eccentricity
0.00014
Inclination
53.2167°
RAAN
239.8859°
Arg. of periapsis
75.2707°
True anomaly
284.82848°
Mean anomaly
284.8437°
Eccentric anomaly
284.83609°
Mean motion
3.77193 °/min
Orbital period
95.44 mins
BSTAR
0.00020748
Loading maneuver chart data...
Computing Atmospheric mass density...
Loading historical data...
Loading historical data...
Loading historical data...
Loading historical data...
Loading historical data...
Loading historical data...
Loading historical data...

Documentation

Showing up to 5 results
|